KG5VSR Weather Reports


Display with metric or nautical units.
time (UTC)temp
F
wind
direction
speed
MPH
gust
MPH
rain 1hr
in
rain 24hr
in
rain mn
in
humidity
%
barometer
mb
20260902201156 98 47 3.0 5.0 0.00 0.00 0.00 46 1012.8
20260902194154 100 325 3.0 5.0 0.00 0.00 0.00 45 1013.5
20260902191154 97 330 1.0 2.0 0.00 0.00 0.00 50 1013.9
20260902184150 97 3 1.0 1.0 0.00 0.00 0.00 50 1014.7
20260902181147 96 39 2.0 3.0 0.00 0.00 0.00 55 1015.1
20260902174142 95 19 4.0 6.0 0.00 0.00 0.00 56 1015.6
20260902171141 93 303 0.0 1.0 0.00 0.00 0.00 59 1016.3
20260902164138 92 333 1.0 2.0 0.00 0.00 0.00 62 1016.7
20260902161135 91 339 1.0 1.0 0.00 0.00 0.00 62 1016.9
20260902154131 91 229 2.0 3.0 0.00 0.00 0.00 64 1016.6
20260902151130 88 241 1.0 2.0 0.00 0.00 0.00 69 1016.6
20260902144130 86 170 1.0 1.0 0.00 0.00 0.00 72 1016.7
20260902141129 85 44 2.0 2.0 0.00 0.00 0.00 74 1016.5
20260902134127 84 190 1.0 1.0 0.00 0.00 0.00 76 1016.0
20260902131127 83 58 1.0 1.0 0.00 0.00 0.00 75 1016.3
20260902124122 81 47 1.0 2.0 0.00 0.00 0.00 79 1016.1
20260902121121 77 1 0.0 0.0 0.00 0.00 0.00 85 1016.1
20260902114117 77 359 0.0 0.0 0.00 0.00 0.00 85 1016.1
20260902111114 78 171 0.0 0.0 0.00 0.00 0.00 85 1016.0
20260902104114 78 172 0.0 0.0 0.00 0.00 0.00 84 1015.9
20260902101114 79 172 0.0 0.0 0.00 0.00 0.00 81 1015.9
20260902094112 79 172 0.0 0.0 0.00 0.00 0.00 80 1015.8
20260902091110 80 172 0.0 0.0 0.00 0.00 0.00 78 1015.9
20260902084110 82 172 0.0 0.0 0.00 0.00 0.00 75 1015.6
20260902081110 82 261 0.0 0.0 0.00 0.00 0.00 74 1015.6
20260902074105 84 144 2.0 2.0 0.00 0.00 0.00 71 1015.9
20260902071102 84 189 1.0 2.0 0.00 0.00 0.00 70 1015.6
20260902064101 85 230 0.0 1.0 0.00 0.00 0.00 69 1015.6
20260902061058 85 126 2.0 3.0 0.00 0.00 0.00 69 1015.9
20260902054055 86 189 2.0 3.0 0.00 0.00 0.00 70 1015.6
20260902051051 86 157 3.0 6.0 0.00 0.00 0.00 69 1015.7
20260902044046 87 191 2.0 2.0 0.00 0.00 0.00 67 1015.8
20260902041043 88 155 1.0 1.0 0.00 0.00 0.00 64 1015.6
20260902034043 89 15 0.0 1.0 0.00 0.00 0.00 60 1015.2
20260902031040 89 291 0.0 0.0 0.00 0.00 0.00 59 1014.9
20260902024036 91 274 0.0 0.0 0.00 0.00 0.00 57 1014.4
20260902021036 91 285 0.0 0.0 0.00 0.00 0.00 56 1014.0
20260902014033 92 244 0.0 1.0 0.00 0.00 0.00 55 1013.5
20260902011031 92 280 0.0 0.0 0.00 0.00 0.00 55 1013.3
20260902004027 95 315 0.0 0.0 0.00 0.00 0.00 51 1013.3
20260902001027 96 189 2.0 2.0 0.00 0.00 0.00 49 1013.3
20260901234025 97 18 0.0 1.0 0.00 0.00 0.00 48 1013.4
20260901231021 96 118 1.0 1.0 0.00 0.00 0.00 49 1013.8
20260901224021 97 60 0.0 0.0 0.00 0.00 0.00 48 1013.7
20260901221017 99 68 0.0 1.0 0.00 0.00 0.00 47 1014.0
20260901214013 99 86 0.0 1.0 0.00 0.00 0.00 46 1014.0
20260901211014 99 221 3.0 5.0 0.00 0.00 0.00 47 1014.2
20260901204008 99 73 1.0 3.0 0.00 0.00 0.00 46 1014.5